星链-36714(STARLINK-36714)

导读

STARLINK-36714是美国星链计划中的一颗卫星,于2026年2月22日发射,归属SpaceX公司运营,星链系统旨在构建全球卫星互联网,为全球偏远地区、海洋及空中提供高速低延迟网络通信服务,这颗卫星将进一步扩充星链星座在轨规模,提升网络覆盖容量与服务稳定性。

基本信息
目录编号:
67924
目录名称:
STARLINK-36714
国际标识:
2026-036W
轨道中心:
EARTH
卫星名称:
星链-36714
卫星全名:
星链-36714(STARLINK-36714)
卫星状态:
在轨 (已飞行111 天)
发射日期:
2026-02-22 UTC
国别 :
美国 (US)
星等 :
--
轨道信息
数据来源 国际轨道数据
星历时间: 2026-06-11T19:22:31+0800
1天前
查看轨道信息
半长轴: 6861.153km
偏心率: 0.0001136
轨道倾角: 43.006°
近地点辐角 275.308°
升交点赤经 75.750°
平近点角 84.764°
近地点: 482.236km
远地点: 483.796km
周期: 94.266分钟
每日圈数: 15.275913
详细信息
固有亮度:
5
最大亮度:
2.5
卫星平台:
Starlink V1.0
覆盖范围:
全球
运营商:
太空探索技术公司
运营商所在国:
美国
制造商(研发单位):
太空探索技术公司
制造商所在国:
美国
使用方式:
暂无
卫星简介
Starlink 计划是 SpaceX 推出的全球卫星互联网项目,通过发射低轨道卫星,为全球尤其是偏远地区提供高速、低延迟的互联网服务。自 2019 年起,Starlink 已部署数千颗卫星,旨在缩小全球数字鸿沟,推动互联网普及。该项目还为军事、航空等行业提供通信支持,带来广泛经济效益。
2D轨道图
3D轨道图
轨道高度分析图
轨道倾角分析图
轨道综合分析图
查看轨道综合分析图